STARLINK-1042 (44747 NORAD) Tracking and Keplerian Element Data

This shows tracking and keplerian element data for the satellite.

Feedback or suggestion? Click here.




ElementValue
Catalog44747
NameSTARLINK-1042
Epoch Orbit1036
Epoch Day17.91667824
Epoch Year2020
RAAN214.3971
Inclination53.0094
Eccentricity0.0001978
Argument of Perigee77.4934
Mean Anonmoly78.631
Mean Motion15.05551604
Decay Rate0.00021292
L11 44747U 19074AL 20017.91667824 .00021292 00000-0 14772-2 0 9999
L22 44747 53.0094 214.3971 0001978 77.4934 78.6310 15.05551604 10362

Live tracking and technical data element details for STARLINK-1042 (NORAD 44747). STARLINK-1042 can be tracked NOW for your location showing map with azimuth and elevation plus other details from your city location.

Track the satellite on the map from your city or location and see movement details for azimuth, elevation, latitude, longitude, range, height, and movement on the map or in text.







IsCatalogInMostPopularTable: catalog: 44747, numindb: 8
Update: records affected: 1



GetName: 44747 STARLINK-1042

Hit Count: updated at: Mon, 20 Jan 2020 03:35:17 GMT